Stations météo

réclame
Mon MeteoGroup
St.Peter-Ording, Allemagne (10028): Température de l'air & dewpoint: 15.06.2018 19:00:00 - 21.06.2018 19:00:00 (CEST)St.Peter-Ording, Allemagne (10028): Température de l'air 5cm & Température de l'air -5cm: 15.06.2018 19:00:00 - 21.06.2018 19:00:00 (CEST)St.Peter-Ording, Allemagne (10028): Température de l'air -20cm & Température de l'air -100cm: 15.06.2018 19:00:00 - 21.06.2018 19:00:00 (CEST)St.Peter-Ording, Allemagne (10028): Vitesse du vent & gusts: 15.06.2018 19:00:00 - 21.06.2018 19:00:00 (CEST)St.Peter-Ording, Allemagne (10028): Direction du vent: 15.06.2018 19:00:00 - 21.06.2018 19:00:00 (CEST)St.Peter-Ording, Allemagne (10028): reduced air pressure: 15.06.2018 19:00:00 - 21.06.2018 19:00:00 (CEST)St.Peter-Ording, Allemagne (10028): visibility: 15.06.2018 19:00:00 - 21.06.2018 19:00:00 (CEST)St.Peter-Ording, Allemagne (10028): Ensoleillement: 15.06.2018 19:00:00 - 21.06.2018 19:00:00 (CEST)St.Peter-Ording, Allemagne (10028): Quantités de précipitations: 15.06.2018 19:00:00 - 21.06.2018 19:00:00 (CEST)
Date & Time tt [°C] td [°C] tt 5cm [°C] tt -5cm [°C] tt -20cm [°C] tt -100cm [°C] ff [km/h] ff [knt] fx [km/h] fx [knt] dd ppp [hPa] vv [km] sd [min] rr [mm]
21.06.2018 19:00:00 13,2 7,5 13,4 15,7 17,4 16,1 49 26 72 39 WNW 1015,5 24 31 0,0
21.06.2018 18:00:00 14,0 7,9 15,9 17,6 17,3 16,1 53 29 68 37 NW 1015,0 17 44 0,2
21.06.2018 17:00:00 11,5 8,7 10,8 14,7 17,5 16,1 50 27 68 37 NW 1014,9 6 8 0,3
21.06.2018 16:00:00 12,1 8,9 10,9 14,1 17,8 16,1 49 27 71 39 NW 1014,0 17 0 2,4
21.06.2018 15:00:00 11,5 8,3 11,2 16,0 17,9 16,1 42 23 59 32 WNW 1013,3 17 6 0,1
21.06.2018 14:00:00 11,6 8,2 11,9 15,7 18,0 16,1 45 24 66 35 NW 1012,6 12 4 0,4
21.06.2018 13:00:00 12,3 8,4 12,8 15,2 18,3 16,1 47 25 64 35 NW 1011,6 25 0 0,0
21.06.2018 12:00:00 11,7 9,6 11,1 14,5 18,5 16,1 44 24 56 30 WNW 1010,8 34 0 2,2
21.06.2018 11:00:00 13,1 9,3 12,8 17,8 18,6 16,1 32 17 44 24 WNW 1010,3 24 11 0,9
21.06.2018 10:00:00 13,9 9,4 14,7 16,2 18,8 16,1 26 14 40 22 WNW 1010,5 50 0 0,0
21.06.2018 09:00:00 13,6 9,5 13,8 15,4 19,1 16,1 28 15 40 21 WNW 1010,8 55 0 0,0
21.06.2018 08:00:00 13,8 9,6 13,8 15,4 19,4 16,0 29 16 44 24 WNW 1011,0 41 0 0,0
21.06.2018 07:00:00 13,9 10,0 13,8 15,5 19,7 16,0 31 17 39 21 WNW 1011,1 64 0 0,0
21.06.2018 06:00:00 13,8 10,0 13,1 15,5 20,1 16,0 24 13 34 19 WNW 1011,6 59 0 0,0
21.06.2018 05:00:00 13,6 10,4 12,5 15,9 20,6 16,0 26 14 39 21 NW 1012,2 42 0 0,1
21.06.2018 04:00:00 13,8 11,5 13,0 16,7 21,0 16,0 27 14 39 21 WNW 1012,5 17 0 0,1
21.06.2018 03:00:00 14,6 12,9 14,3 17,6 21,4 16,0 23 13 39 21 WNW 1012,8 26 0 0,0
21.06.2018 02:00:00 15,8 14,5 15,4 18,2 21,9 16,0 31 17 49 26 W 1013,1 17 0 0,1
21.06.2018 01:00:00 15,9 15,0 15,7 19,0 22,3 15,9 39 21 51 27 W 1013,8 13 0 0,4
21.06.2018 00:00:00 16,6 15,2 16,3 20,1 22,8 15,9 38 21 54 29 W 1014,1 11 0 0,0
20.06.2018 23:00:00 17,1 15,1 17,2 21,0 23,2 15,9 37 20 51 28 W 1014,5 17 0 0,0
20.06.2018 22:00:00 17,0 15,0 17,2 21,8 23,7 15,9 37 20 50 27 WSW 1014,7 20 0 0,0
20.06.2018 21:00:00 16,6 14,8 17,2 23,2 24,1 15,9 38 21 55 30 W 1015,1 19 16 0,0
20.06.2018 20:00:00 17,5 15,0 19,1 25,8 24,4 15,9 43 23 52 28 W 1015,3 9 28 0,0
20.06.2018 19:00:00 18,0 15,5 19,7 28,7 24,5 15,9 42 23 57 31 W 1015,9 6 58 0,0
20.06.2018 18:00:00 19,4 16,0 22,4 31,6 24,3 15,9 45 24 59 32 W 1016,1 3,9 60 0,0
20.06.2018 17:00:00 20,3 16,2 24,0 33,4 23,9 15,9 39 21 50 27 W 1016,5 3,6 59 0,0
20.06.2018 16:00:00 21,0 16,7 26,6 34,1 23,3 15,9 32 18 44 24 W 1016,9 6 38 0,0
20.06.2018 15:00:00 21,5 16,8 26,6 36,1 22,5 15,9 29 16 36 19 WSW 1017,3 6 57 0,0
20.06.2018 14:00:00 21,8 16,5 27,9 34,7 21,6 15,9 27 15 38 20 SW 1017,7 7 58 0,0
20.06.2018 13:00:00 21,4 16,6 26,0 32,2 20,7 15,9 30 16 39 21 SW 1018,4 10 56 0,0
20.06.2018 12:00:00 20,8 16,2 25,4 29,5 20,0 15,9 30 16 42 23 SSW 1018,6 6 60 0,0
20.06.2018 11:00:00 19,5 15,7 22,8 26,3 19,4 15,9 31 17 47 25 SSW 1018,9 7 60 0,0
20.06.2018 10:00:00 18,9 15,4 21,6 23,5 19,1 15,9 34 18 47 26 SSW 1019,0 8 57 0,0
20.06.2018 09:00:00 18,2 15,1 19,8 21,0 18,9 15,9 38 20 49 27 SW 1019,2 9 39 0,0
20.06.2018 08:00:00 18,1 15,2 19,6 19,4 18,9 15,8 30 16 42 23 SSW 1019,2 9 32 0,0
20.06.2018 07:00:00 17,1 14,6 17,1 17,9 19,1 15,8 28 15 39 21 SSW 1019,6 14 0 0,0
20.06.2018 06:00:00 16,6 14,2 16,6 17,5 19,3 15,8 26 14 36 19 SSW 1020,1 19 0 0,0
20.06.2018 05:00:00 16,1 13,0 16,0 17,2 19,5 15,8 20 11 30 16 S 1020,5 30 0 0,0
20.06.2018 04:00:00 15,7 11,4 15,4 17,3 19,8 15,8 14 8 20 11 S 1020,7 35 0 0,0
20.06.2018 03:00:00 15,6 11,4 15,4 17,5 20,1 15,8 13 7 18 10 SSW 1021,3 35 0 0,0
20.06.2018 02:00:00 15,1 10,5 14,9 17,3 20,6 15,8 12 6 18 10 WSW 1021,9 46 0 0,0
20.06.2018 01:00:00 14,6 10,1 13,9 17,4 21,1 15,8 14 8 26 14 W 1022,3 36 0 0,0
20.06.2018 00:00:00 14,3 10,1 13,5 17,6 21,7 15,8 20 11 31 17 W 1022,7 36 0 0,0
19.06.2018 23:00:00 14,5 9,7 13,7 18,7 22,3 15,8 22 12 33 18 W 1022,9 35 0 0,0
19.06.2018 22:00:00 14,7 9,5 14,6 20,4 22,8 15,8 24 13 34 18 W 1022,7 33 0 0,0
19.06.2018 21:00:00 15,4 10,0 15,6 22,6 23,2 15,8 25 14 36 20 W 1022,4 28 41 0,0
19.06.2018 20:00:00 15,8 9,6 16,8 25,8 23,4 15,8 28 15 39 21 W 1022,5 16 50 0,0
19.06.2018 19:00:00 16,4 10,5 18,7 28,5 23,3 15,8 26 14 34 19 WSW 1022,3 19 51 0,0
19.06.2018 18:00:00 16,9 9,4 21,0 31,3 23,0 15,8 24 13 33 18 W 1022,5 11 60 0,0
19.06.2018 17:00:00 17,9 10,0 22,2 32,7 22,4 15,8 24 13 35 19 W 1022,2 11 60 0,0
19.06.2018 16:00:00 17,8 10,0 22,9 32,9 21,6 15,8 26 14 43 23 WNW 1021,9 4,7 60 0,0
19.06.2018 15:00:00 18,5 9,9 23,7 32,5 20,6 15,8 29 16 39 21 W 1021,3 6 60 0,0
19.06.2018 14:00:00 19,2 11,3 24,4 31,0 19,6 15,8 26 14 34 18 W 1021,2 8 59 0,0
19.06.2018 13:00:00 18,4 12,3 23,0 27,5 18,9 15,8 25 13 36 20 W 1020,6 11 29 0,0
19.06.2018 12:00:00 18,4 13,6 22,8 26,3 18,3 15,8 21 11 31 17 W 1019,8 13 35 0,0
19.06.2018 11:00:00 17,3 13,1 19,7 21,4 18,0 15,8 24 13 39 21 WNW 1019,4 14 0 0,0
19.06.2018 10:00:00 16,6 14,5 17,7 19,3 17,9 15,8 32 17 40 22 W 1018,8 15 0 0,0
19.06.2018 09:00:00 16,5 15,0 17,2 18,0 17,9 15,8 31 17 44 24 W 1017,9 10 0 0,0
19.06.2018 08:00:00 15,8 14,3 15,6 17,2 18,0 15,8 37 20 51 28 W 1017,4 9 0 0,0
19.06.2018 07:00:00 16,7 14,5 16,9 17,3 18,1 15,8 42 23 54 29 WSW 1016,7 11 0 0,0
19.06.2018 06:00:00 16,5 14,2 16,5 16,8 18,2 15,8 37 20 55 30 WSW 1016,3 14 0 0,0
19.06.2018 05:00:00 16,2 13,8 16,2 16,7 18,4 15,8 37 20 53 28 WSW 1016,2 14 0 0,0
19.06.2018 04:00:00 16,2 13,8 16,2 16,7 18,6 15,8 33 18 45 25 WSW 1016,5 12 0 0,0
19.06.2018 03:00:00 16,0 13,8 15,7 16,7 18,8 15,8 31 17 41 22 SW 1016,6 13 0 0,0
19.06.2018 02:00:00 16,0 14,1 15,7 16,6 19,1 15,8 34 19 49 26 WSW 1016,9 16 0 0,0
19.06.2018 01:00:00 15,8 14,0 15,5 16,8 19,5 15,8 40 21 50 27 W 1017,2 15 0 0,0
19.06.2018 00:00:00 15,7 13,6 15,2 17,3 19,9 15,8 34 18 44 24 WSW 1017,3 19 0 0,0
18.06.2018 23:00:00 15,8 13,9 15,6 18,4 20,3 15,8 29 16 39 21 WSW 1017,3 14 0 0,0
18.06.2018 22:00:00 16,2 14,0 16,3 19,5 20,5 15,8 29 16 39 21 WSW 1016,8 18 3 0,0
18.06.2018 21:00:00 16,5 14,3 17,0 20,8 20,7 15,8 22 12 30 16 WSW 1016,8 15 0 0,0
18.06.2018 20:00:00 16,4 14,1 17,2 22,4 20,8 15,8 21 12 27 15 WSW 1017,0 13 0 0,0
18.06.2018 19:00:00 16,9 14,1 18,7 24,3 20,6 15,8 21 11 35 19 W 1016,8 14 9 0,0
18.06.2018 18:00:00 17,9 14,3 20,8 26,3 20,1 15,8 28 15 36 19 WSW 1016,8 11 32 0,0
18.06.2018 17:00:00 18,8 14,8 22,9 26,7 19,7 15,8 31 17 43 23 WSW 1017,0 8 30 0,0
18.06.2018 16:00:00 17,6 15,2 19,1 23,2 19,4 15,8 31 17 45 24 SW 1017,1 8 1 0,0
18.06.2018 15:00:00 18,1 14,9 20,7 23,5 19,2 15,8 33 18 44 24 SW 1017,2 8 4 0,0
18.06.2018 14:00:00 17,3 14,2 20,0 21,3 19,0 15,8 31 17 47 26 SSW 1017,0 11 0 0,0
18.06.2018 13:00:00 17,0 13,7 19,1 21,1 18,9 15,8 32 17 49 26 SW 1017,3 16 0 0,0
18.06.2018 12:00:00 16,3 13,0 17,5 20,9 18,7 15,8 33 18 43 23 SW 1017,1 15 0 0,0
18.06.2018 11:00:00 16,2 12,5 17,4 20,7 18,4 15,8 30 16 43 23 SSW 1017,0 18 0 0,0
18.06.2018 10:00:00 16,4 12,2 18,5 21,1 18,1 15,8 30 16 42 23 SSW 1017,0 14 5 0,0
18.06.2018 09:00:00 16,3 11,9 18,0 19,3 18,0 15,8 32 18 42 23 SW 1016,9 24 6 0,0
18.06.2018 08:00:00 15,6 12,2 16,4 16,9 18,1 15,8 27 15 39 21 SSW 1016,8 19 0 0,0
18.06.2018 07:00:00 15,3 11,9 15,4 16,0 18,3 15,8 27 15 37 20 SSW 1016,8 20 29 0,0
18.06.2018 06:00:00 15,0 11,5 14,2 15,1 18,6 15,8 24 13 33 18 SW 1017,0 26 25 0,0
18.06.2018 05:00:00 14,8 11,2 13,7 15,6 18,9 15,8 22 12 35 19 SW 1016,9 26 0 0,0
18.06.2018 04:00:00 15,4 12,0 15,3 16,2 19,2 15,8 24 13 32 17 SW 1017,0 21 0 0,0
18.06.2018 03:00:00 15,1 11,1 14,4 15,8 19,7 15,7 25 14 32 17 WSW 1017,2 32 0 0,0
18.06.2018 02:00:00 14,7 11,1 13,9 16,2 20,2 15,7 23 13 29 16 W 1017,3 27 0 0,0
18.06.2018 01:00:00 14,5 11,1 14,0 16,8 20,7 15,7 20 11 29 16 WSW 1017,3 23 0 0,0
18.06.2018 00:00:00 14,6 11,0 14,1 17,6 21,3 15,7 19 10 25 13 WSW 1017,2 24 0 0,0
17.06.2018 23:00:00 14,8 10,9 14,4 18,5 21,9 15,7 21 11 27 15 W 1017,1 24 0 0,0
17.06.2018 22:00:00 14,7 11,2 14,4 19,9 22,5 15,7 21 11 26 14 W 1016,9 23 12 0,0
17.06.2018 21:00:00 15,4 11,2 15,4 22,5 22,9 15,7 22 12 31 17 W 1016,8 20 48 0,0
17.06.2018 20:00:00 16,9 11,7 19,1 26,0 23,0 15,8 22 12 31 17 W 1016,6 16 59 0,0
17.06.2018 19:00:00 17,2 11,3 19,6 28,0 22,9 15,8 23 13 35 19 W 1016,3 20 58 0,0
17.06.2018 18:00:00 17,6 10,7 21,3 30,0 22,5 15,8 25 13 35 19 W 1015,9 12 56 0,0
17.06.2018 17:00:00 17,8 11,2 21,7 31,2 21,9 15,8 27 15 39 21 W 1015,8 6 59 0,0
17.06.2018 16:00:00 17,5 11,6 21,5 31,8 21,1 15,8 27 15 36 19 W 1015,4 8 59 0,0
17.06.2018 15:00:00 17,7 11,5 22,5 30,4 20,3 15,8 26 14 35 19 W 1015,1 12 49 0,0
17.06.2018 14:00:00 17,5 11,3 21,6 28,8 19,4 15,8 25 14 35 19 W 1014,6 14 45 0,0
17.06.2018 13:00:00 17,4 12,1 20,8 25,9 18,7 15,8 25 14 40 22 W 1014,0 9 35 0,0
17.06.2018 12:00:00 18,7 13,9 22,7 23,7 18,3 15,8 34 18 50 27 WSW 1013,5 9 14 0,0
17.06.2018 11:00:00 16,4 12,4 17,5 21,9 17,8 15,8 33 18 48 26 SW 1013,1 19 17 0,0
17.06.2018 10:00:00 17,6 12,7 20,4 21,4 17,4 15,8 33 18 45 25 SW 1012,8 13 52 0,0
17.06.2018 09:00:00 16,2 12,3 18,1 18,4 17,2 15,8 32 18 43 23 SW 1012,4 11 59 0,0
17.06.2018 08:00:00 16,1 12,1 17,3 16,2 17,2 15,8 28 15 44 24 SW 1012,3 12 60 0,0
17.06.2018 07:00:00 15,7 11,3 15,7 14,5 17,5 15,8 29 16 44 24 SW 1012,3 14 49 0,0
17.06.2018 06:00:00 15,1 10,9 13,8 14,2 17,8 15,8 32 17 41 22 SW 1012,4 37 2 0,0
17.06.2018 05:00:00 15,6 11,9 14,3 14,9 18,1 15,8 28 15 36 19 SW 1012,5 14 0 0,0
17.06.2018 04:00:00 15,7 13,6 14,7 15,2 18,4 15,8 19 10 29 16 SSW 1012,6 7 0 0,0
17.06.2018 03:00:00 16,0 13,2 14,9 15,9 18,7 15,8 23 12 32 17 SW 1013,0 10 0 0,0
17.06.2018 02:00:00 15,3 12,2 14,2 16,2 19,0 15,8 18 10 27 14 SW 1013,1 15 0 0,5
17.06.2018 01:00:00 15,7 13,6 14,8 16,7 19,3 15,8 14 8 21 11 SSW 1013,4 6 0 0,5
17.06.2018 00:00:00 16,2 12,5 15,6 17,1 19,7 15,8 13 7 16 9 W 1013,2 9 0 0,0
16.06.2018 23:00:00 15,3 11,6 12,7 17,3 20,1 15,8 8 5 13 7 W 1013,1 20 0 0,0
16.06.2018 22:00:00 16,0 10,6 14,6 19,0 20,4 15,8 11 6 22 12 W 1013,3 30 0 0,0
16.06.2018 21:00:00 17,3 12,9 17,5 21,0 20,6 15,8 17 9 22 12 W 1013,2 12 1 0,0
16.06.2018 20:00:00 18,3 13,9 19,4 23,1 20,5 15,8 7 4 10 5 W 1012,9 9 24 0,0
16.06.2018 19:00:00 18,2 13,7 19,4 22,7 20,6 15,8 6 3 10 5 WSW 1012,9 10 9 0,0
16.06.2018 18:00:00 17,5 13,5 19,0 21,7 20,8 15,8 4 2 21 11 NW 1013,0 9 0 0,0
16.06.2018 17:00:00 16,8 14,6 16,5 22,6 20,8 15,8 16 9 24 13 WNW 1013,3 4,0 0 0,1
16.06.2018 16:00:00 18,0 14,2 18,2 25,2 20,4 15,8 14 8 20 11 W 1013,3 6 0 0,0
16.06.2018 15:00:00 19,7 14,2 23,0 28,6 19,6 15,8 10 5 17 9 WSW 1013,2 11 19 0,0
16.06.2018 14:00:00 20,9 14,3 24,9 28,0 18,7 15,8 12 6 23 12 SSW 1013,5 11 56 0,0
16.06.2018 13:00:00 20,3 13,2 24,2 23,7 18,3 15,8 9 5 20 11 S 1013,9 16 7 0,0
16.06.2018 12:00:00 18,7 13,5 20,8 19,9 18,2 15,7 9 5 26 14 SE 1014,2 19 0 0,1
16.06.2018 11:00:00 17,5 13,4 17,0 19,8 18,1 15,7 16 8 22 12 SE 1014,3 14 0 0,0
16.06.2018 10:00:00 16,3 12,8 16,0 18,0 18,0 15,7 13 7 26 14 SE 1014,3 14 0 0,0
16.06.2018 09:00:00 16,7 10,6 17,6 18,1 18,0 15,7 17 9 25 14 ESE 1014,5 37 0 0,0
16.06.2018 08:00:00 15,7 9,9 16,1 16,5 18,1 15,7 14 7 21 12 ESE 1014,8 48 0 0,0
16.06.2018 07:00:00 14,2 9,9 14,4 15,6 18,4 15,7 14 7 22 12 ESE 1014,9 44 0 0,0
16.06.2018 06:00:00 13,7 10,0 13,5 15,1 18,8 15,7 13 7 18 10 ESE 1015,3 37 0 0,0
16.06.2018 05:00:00 13,8 10,0 13,2 15,2 19,2 15,7 13 7 19 10 E 1015,6 39 0 0,0
16.06.2018 04:00:00 13,9 10,4 13,2 15,8 19,6 15,7 13 7 19 11 E 1016,0 31 0 0,0
16.06.2018 03:00:00 14,1 10,0 13,5 16,4 20,1 15,7 9 5 13 7 E 1016,5 53 0 0,0
16.06.2018 02:00:00 14,6 9,9 14,3 17,2 20,6 15,6 9 5 13 7 E 1016,8 38 0 0,0
16.06.2018 01:00:00 14,9 9,2 14,6 17,9 21,1 15,6 9 5 14 8 E 1016,8 42 0 0,0
16.06.2018 00:00:00 15,1 10,1 15,1 18,8 21,6 15,6 6 4 13 7 E 1017,0 38 0 0,0
15.06.2018 23:00:00 14,9 9,6 14,8 19,3 22,3 15,7 8 5 12 6 ENE 1016,8 43 0 0,0
15.06.2018 22:00:00 15,3 9,6 14,0 20,8 22,9 15,7 8 5 10 6 E 1016,9 45 0 0,0
15.06.2018 21:00:00 16,7 8,3 16,4 23,5 23,4 15,7 6 4 12 7 ENE 1017,2 59 28 0,0
15.06.2018 20:00:00 18,4 6,6 20,5 27,4 23,5 15,7 8 4 13 7 NNE 1017,3 53 60 0,0
15.06.2018 19:00:00 19,0 6,7 23,6 30,5 23,3 15,7 8 4 16 9 N 1017,4 40 60 0,0

tt = Température de l'air
td = dewpoint
tt 5cm = Température de l'air 5cm
tt -5cm = Température de l'air -5cm
tt -20cm = Température de l'air -20cm
tt -100cm = Température de l'air -100cm
ff = Vitesse du vent
fx = gusts
dd = Direction du vent
ppp = reduced air pressure
vv = visibility
sd = Ensoleillement
rr = Quantités de précipitations

stations d'obs. à proximité